Terminal Aerodrome Forecast
Issued by NWS Billings, MT

Home | Current Version | Previous Version | Text Only | Print | Product List | Glossary Off
Versions: 1 2 3 4 5 6 7 8 9 10 11 12 13

000
FTUS45 KBYZ 152328
TAFMLS
TAF
KMLS 152328Z 1600/1624 27011KT P6SM SCT100 OVC200
     FM160200 31012G22KT P6SM BKN080 OVC120
     FM160800 32010KT P6SM VCSH OVC050
     FM161400 32009KT P6SM OVC070=

USA.gov is the U.S. government's official web portal to all federal, state and local government web resources and services.